Location: Unnamed
(45.3580°N, 90.2245°W)
Time: 09:16:42
(UTC-05:00)

Envisat - Pass Details

Date: 10 March 2021
Orbit: 764 x 766 km, 98.1° (Epoch: 17 April)

Event Time Altitude Azimuth Distance (km) Brightness Sun altitude
Rises 04:39:29 0° 26° (NNE) 3,242 6.8 -18.8°
Reaches altitude 10° 04:42:18 10° 41° (NE) 2,311 6.3 -18.3°
Maximum altitude 04:46:15 22° 92° (E) 1,613 5.6 -17.6°
Drops below altitude 10° 04:50:10 10° 143° (SE) 2,296 5.8 -16.9°
Sets 04:52:56 0° 158° (SSE) 3,216 6.4 -16.5°
